| time (UTC) | temp F | wind direction | speed MPH | gust MPH | rain 1hr in | rain 24hr in | rain mn in | humidity % | barometer mb |
| 20260906093504 | 75 | 20 | 1.0 | 4.0 | 0.00 | 0.05 | 0.00 | 83 | 1012.4 |
| 20260906093005 | 75 | 15 | 1.0 | 3.0 | 0.00 | 0.05 | 0.00 | 83 | 1012.4 |
| 20260906092504 | 75 | 14 | 1.0 | 3.0 | 0.00 | 0.05 | 0.00 | 82 | 1012.3 |
| 20260906092005 | 75 | 0 | 0.0 | 2.0 | 0.00 | 0.05 | 0.00 | 82 | 1012.3 |
| 20260906091504 | 75 | 0 | 0.0 | 1.0 | 0.00 | 0.05 | 0.00 | 82 | 1012.2 |
| 20260906091004 | 75 | 0 | 0.0 | 1.0 | 0.00 | 0.05 | 0.00 | 82 | 1012.2 |
| 20260906090506 | 75 | 0 | 0.0 | 0.0 | 0.00 | 0.05 | 0.00 | 82 | 1012.3 |
| 20260906085504 | 76 | 0 | 0.0 | 2.0 | 0.00 | 0.05 | 0.00 | 82 | 1012.2 |
| 20260906085005 | 76 | 0 | 0.0 | 2.0 | 0.00 | 0.05 | 0.00 | 82 | 1012.2 |
| 20260906084005 | 76 | 9 | 1.0 | 4.0 | 0.00 | 0.05 | 0.00 | 82 | 1012.2 |
| 20260906083504 | 76 | 0 | 0.0 | 4.0 | 0.00 | 0.05 | 0.00 | 82 | 1012.2 |
| 20260906083004 | 76 | 0 | 0.0 | 2.0 | 0.00 | 0.05 | 0.00 | 81 | 1012.2 |
| 20260906082504 | 76 | 0 | 0.0 | 2.0 | 0.00 | 0.05 | 0.00 | 81 | 1012.3 |
| 20260906082004 | 76 | 10 | 1.0 | 3.0 | 0.00 | 0.05 | 0.00 | 81 | 1012.2 |
| 20260906081504 | 76 | 10 | 1.0 | 3.0 | 0.00 | 0.05 | 0.00 | 81 | 1012.2 |
| 20260906081005 | 76 | 36 | 1.0 | 3.0 | 0.00 | 0.05 | 0.00 | 81 | 1012.2 |
| 20260906080505 | 76 | 44 | 1.0 | 3.0 | 0.00 | 0.05 | 0.00 | 81 | 1012.2 |
| 20260906080006 | 76 | 53 | 1.0 | 3.0 | 0.00 | 0.05 | 0.00 | 81 | 1012.2 |
| 20260906074504 | 76 | 0 | 0.0 | 3.0 | 0.00 | 0.05 | 0.00 | 80 | 1012.1 |
| 20260906074004 | 77 | 54 | 1.0 | 3.0 | 0.00 | 0.05 | 0.00 | 80 | 1012.1 |
| 20260906073504 | 77 | 50 | 1.0 | 3.0 | 0.00 | 0.05 | 0.00 | 80 | 1012.1 |
| 20260906073004 | 77 | 0 | 0.0 | 3.0 | 0.00 | 0.05 | 0.00 | 80 | 1012.2 |
| 20260906072504 | 77 | 0 | 0.0 | 0.0 | 0.00 | 0.05 | 0.00 | 79 | 1012.1 |
| 20260906072004 | 77 | 0 | 0.0 | 1.0 | 0.00 | 0.05 | 0.00 | 79 | 1012.1 |
| 20260906071504 | 77 | 0 | 0.0 | 2.0 | 0.00 | 0.05 | 0.00 | 79 | 1012.2 |
| 20260906071004 | 77 | 0 | 0.0 | 2.0 | 0.00 | 0.05 | 0.00 | 79 | 1012.3 |
| 20260906070004 | 78 | 0 | 0.0 | 0.0 | 0.00 | 0.05 | 0.00 | 78 | 1012.4 |
| 20260906065504 | 78 | 0 | 0.0 | 0.0 | 0.00 | 0.05 | 0.00 | 78 | 1012.3 |
| 20260906065004 | 78 | 0 | 0.0 | 0.0 | 0.00 | 0.05 | 0.00 | 77 | 1012.3 |
| 20260906064504 | 78 | 0 | 0.0 | 0.0 | 0.00 | 0.05 | 0.00 | 77 | 1012.3 |
| 20260906064004 | 78 | 0 | 0.0 | 0.0 | 0.00 | 0.05 | 0.00 | 77 | 1012.3 |
| 20260906063504 | 78 | 0 | 0.0 | 0.0 | 0.00 | 0.05 | 0.00 | 77 | 1012.3 |
| 20260906063004 | 78 | 0 | 0.0 | 0.0 | 0.00 | 0.05 | 0.00 | 77 | 1012.3 |
| 20260906062004 | 78 | 0 | 0.0 | 0.0 | 0.00 | 0.05 | 0.00 | 77 | 1012.4 |
| 20260906061504 | 79 | 0 | 0.0 | 2.0 | 0.00 | 0.05 | 0.00 | 76 | 1012.5 |
| 20260906060504 | 79 | 0 | 0.0 | 1.0 | 0.00 | 0.05 | 0.00 | 76 | 1012.5 |
| 20260906060004 | 79 | 0 | 0.0 | 3.0 | 0.00 | 0.05 | 0.00 | 76 | 1012.4 |
| 20260906055504 | 79 | 0 | 0.0 | 3.0 | 0.00 | 0.05 | 0.00 | 76 | 1012.3 |
| 20260906055004 | 79 | 0 | 0.0 | 0.0 | 0.00 | 0.05 | 0.00 | 75 | 1012.4 |
| 20260906054504 | 79 | 0 | 0.0 | 2.0 | 0.00 | 0.05 | 0.00 | 75 | 1012.3 |
| 20260906054004 | 80 | 47 | 1.0 | 2.0 | 0.00 | 0.05 | 0.00 | 75 | 1012.4 |
| 20260906053504 | 80 | 47 | 1.0 | 2.0 | 0.00 | 0.05 | 0.00 | 75 | 1012.4 |
| 20260906053004 | 80 | 47 | 1.0 | 3.0 | 0.00 | 0.05 | 0.00 | 74 | 1012.3 |
| 20260906052504 | 80 | 49 | 1.0 | 4.0 | 0.00 | 0.05 | 0.00 | 74 | 1012.3 |
| 20260906051504 | 80 | 55 | 1.0 | 4.0 | 0.00 | 0.05 | 0.00 | 74 | 1012.2 |
| 20260906050504 | 80 | 0 | 0.0 | 3.0 | 0.00 | 0.05 | 0.00 | 73 | 1012.2 |
| 20260906050006 | 80 | 0 | 0.0 | 0.0 | 0.00 | 0.05 | 0.00 | 73 | 1012.1 |
| 20260906045504 | 80 | 0 | 0.0 | 2.0 | 0.00 | 0.05 | 0.00 | 73 | 1012.1 |
| 20260906045004 | 80 | 0 | 0.0 | 2.0 | 0.00 | 0.05 | 0.00 | 73 | 1012.1 |
| 20260906044504 | 81 | 0 | 0.0 | 2.0 | 0.00 | 0.05 | 0.00 | 73 | 1012.0 |
| 20260906043504 | 81 | 67 | 1.0 | 4.0 | 0.00 | 0.05 | 0.00 | 72 | 1012.1 |
| 20260906043005 | 81 | 69 | 1.0 | 4.0 | 0.00 | 0.05 | 0.00 | 72 | 1012.1 |
| 20260906042504 | 81 | 69 | 1.0 | 3.0 | 0.00 | 0.05 | 0.00 | 72 | 1011.9 |
| 20260906042004 | 81 | 70 | 1.0 | 4.0 | 0.00 | 0.05 | 0.00 | 71 | 1012.0 |
| 20260906041504 | 81 | 72 | 1.0 | 4.0 | 0.00 | 0.05 | 0.00 | 72 | 1012.0 |
| 20260906041004 | 81 | 76 | 1.0 | 3.0 | 0.00 | 0.05 | 0.00 | 72 | 1012.0 |
| 20260906040504 | 81 | 75 | 1.0 | 3.0 | 0.00 | 0.05 | 0.00 | 72 | 1011.9 |
| 20260906040008 | 80 | 73 | 2.0 | 6.0 | 0.00 | 0.05 | 0.00 | 72 | 1012.0 |
| 20260906035504 | 81 | 68 | 3.0 | 9.0 | 0.00 | 0.05 | 0.05 | 72 | 1012.0 |
| 20260906034505 | 81 | 73 | 1.0 | 4.0 | 0.00 | 0.05 | 0.05 | 71 | 1011.9 |
| 20260906034004 | 81 | 0 | 0.0 | 0.0 | 0.00 | 0.05 | 0.05 | 70 | 1011.8 |
| 20260906033504 | 81 | 0 | 0.0 | 0.0 | 0.00 | 0.05 | 0.05 | 69 | 1011.7 |
| 20260906032504 | 81 | 0 | 0.0 | 0.0 | 0.00 | 0.05 | 0.05 | 68 | 1011.5 |
| 20260906031504 | 82 | 0 | 0.0 | 0.0 | 0.00 | 0.05 | 0.05 | 68 | 1011.6 |
| 20260906031004 | 82 | 0 | 0.0 | 0.0 | 0.00 | 0.05 | 0.05 | 68 | 1011.6 |
| 20260906030504 | 82 | 0 | 0.0 | 0.0 | 0.00 | 0.05 | 0.05 | 67 | 1011.6 |
| 20260906030004 | 82 | 0 | 0.0 | 0.0 | 0.00 | 0.05 | 0.05 | 66 | 1011.7 |
| 20260906025004 | 82 | 0 | 0.0 | 0.0 | 0.00 | 0.05 | 0.05 | 66 | 1011.7 |
| 20260906024504 | 82 | 0 | 0.0 | 0.0 | 0.00 | 0.05 | 0.05 | 65 | 1011.7 |
| 20260906024004 | 83 | 0 | 0.0 | 0.0 | 0.00 | 0.05 | 0.05 | 65 | 1011.8 |
| 20260906023504 | 83 | 0 | 0.0 | 0.0 | 0.00 | 0.05 | 0.05 | 65 | 1011.7 |
| 20260906023004 | 83 | 0 | 0.0 | 0.0 | 0.00 | 0.05 | 0.05 | 65 | 1011.8 |
| 20260906022504 | 83 | 0 | 0.0 | 0.0 | 0.00 | 0.05 | 0.05 | 64 | 1011.8 |
| 20260906022005 | 83 | 0 | 0.0 | 0.0 | 0.00 | 0.05 | 0.05 | 62 | 1011.7 |
| 20260906021503 | 83 | 0 | 0.0 | 0.0 | 0.00 | 0.05 | 0.05 | 62 | 1011.6 |
| 20260906021004 | 84 | 0 | 0.0 | 0.0 | 0.00 | 0.05 | 0.05 | 61 | 1011.5 |
| 20260906020504 | 84 | 0 | 0.0 | 0.0 | 0.00 | 0.05 | 0.05 | 61 | 1011.4 |
| 20260906020004 | 84 | 0 | 0.0 | 0.0 | 0.00 | 0.05 | 0.05 | 61 | 1011.3 |
| 20260906015504 | 84 | 0 | 0.0 | 0.0 | 0.00 | 0.05 | 0.05 | 62 | 1011.4 |
| 20260906014504 | 85 | 0 | 0.0 | 0.0 | 0.00 | 0.05 | 0.05 | 60 | 1011.3 |
| 20260906013504 | 85 | 0 | 0.0 | 0.0 | 0.00 | 0.05 | 0.05 | 59 | 1011.1 |
| 20260906013004 | 85 | 0 | 0.0 | 0.0 | 0.00 | 0.05 | 0.05 | 59 | 1010.9 |
| 20260906012504 | 86 | 0 | 0.0 | 2.0 | 0.00 | 0.05 | 0.05 | 58 | 1010.8 |
| 20260906012004 | 86 | 0 | 0.0 | 2.0 | 0.00 | 0.05 | 0.05 | 58 | 1010.8 |
| 20260906011504 | 86 | 80 | 1.0 | 5.0 | 0.00 | 0.05 | 0.05 | 58 | 1010.8 |
| 20260906011004 | 86 | 112 | 1.0 | 5.0 | 0.00 | 0.05 | 0.05 | 58 | 1010.6 |
| 20260906010504 | 86 | 0 | 0.0 | 3.0 | 0.00 | 0.05 | 0.05 | 58 | 1010.5 |
| 20260906010005 | 87 | 0 | 0.0 | 2.0 | 0.00 | 0.05 | 0.05 | 56 | 1010.7 |
| 20260906005504 | 87 | 0 | 0.0 | 2.0 | 0.00 | 0.05 | 0.05 | 55 | 1010.7 |
| 20260906005004 | 87 | 0 | 0.0 | 2.0 | 0.00 | 0.05 | 0.05 | 55 | 1010.7 |
| 20260906004504 | 87 | 164 | 1.0 | 3.0 | 0.00 | 0.05 | 0.05 | 55 | 1010.7 |
| 20260906004004 | 87 | 144 | 2.0 | 4.0 | 0.00 | 0.05 | 0.05 | 55 | 1010.6 |
| 20260906003504 | 88 | 137 | 2.0 | 7.0 | 0.00 | 0.05 | 0.05 | 55 | 1010.7 |
| 20260906003004 | 88 | 142 | 1.0 | 7.0 | 0.00 | 0.05 | 0.05 | 55 | 1010.8 |
| 20260906002504 | 88 | 0 | 0.0 | 3.0 | 0.00 | 0.05 | 0.05 | 56 | 1010.8 |
| 20260906002004 | 89 | 136 | 1.0 | 5.0 | 0.00 | 0.05 | 0.05 | 55 | 1011.0 |
| 20260906001504 | 89 | 136 | 1.0 | 5.0 | 0.00 | 0.05 | 0.05 | 54 | 1011.1 |
| 20260906001004 | 90 | 130 | 2.0 | 7.0 | 0.00 | 0.05 | 0.05 | 54 | 1010.9 |
| 20260906000504 | 90 | 131 | 3.0 | 7.0 | 0.00 | 0.05 | 0.05 | 54 | 1011.0 |
| 20260905235504 | 91 | 129 | 3.0 | 7.0 | 0.00 | 0.05 | 0.05 | 53 | 1011.2 |
| 20260905234504 | 93 | 96 | 2.0 | 7.0 | 0.00 | 0.05 | 0.05 | 53 | 1011.3 |
| 20260905234004 | 93 | 79 | 2.0 | 5.0 | 0.00 | 0.05 | 0.05 | 52 | 1011.2 |
| 20260905233504 | 93 | 82 | 1.0 | 5.0 | 0.00 | 0.05 | 0.05 | 52 | 1011.2 |
| 20260905233004 | 94 | 72 | 1.0 | 5.0 | 0.00 | 0.05 | 0.05 | 51 | 1011.1 |
| 20260905232504 | 94 | 59 | 1.0 | 5.0 | 0.00 | 0.05 | 0.05 | 51 | 1011.1 |
| 20260905232004 | 94 | 46 | 1.0 | 4.0 | 0.00 | 0.05 | 0.05 | 51 | 1011.1 |
| 20260905231504 | 94 | 21 | 2.0 | 6.0 | 0.00 | 0.05 | 0.05 | 50 | 1011.2 |
| 20260905231004 | 95 | 1 | 2.0 | 8.0 | 0.00 | 0.05 | 0.05 | 50 | 1011.0 |
| 20260905230504 | 95 | 356 | 2.0 | 8.0 | 0.00 | 0.05 | 0.05 | 48 | 1010.9 |
| 20260905225504 | 96 | 341 | 1.0 | 6.0 | 0.00 | 0.05 | 0.05 | 47 | 1010.7 |
| 20260905225004 | 96 | 320 | 1.0 | 5.0 | 0.00 | 0.05 | 0.05 | 47 | 1010.7 |
| 20260905224504 | 96 | 350 | 2.0 | 5.0 | 0.00 | 0.05 | 0.05 | 47 | 1010.7 |
| 20260905224004 | 96 | 357 | 2.0 | 5.0 | 0.00 | 0.05 | 0.05 | 47 | 1010.7 |
| 20260905223504 | 96 | 331 | 3.0 | 6.0 | 0.00 | 0.05 | 0.05 | 47 | 1010.5 |
| 20260905223004 | 96 | 307 | 3.0 | 6.0 | 0.00 | 0.05 | 0.05 | 47 | 1010.3 |
| 20260905222504 | 96 | 300 | 3.0 | 6.0 | 0.00 | 0.05 | 0.05 | 46 | 1010.5 |
| 20260905222004 | 96 | 296 | 3.0 | 7.0 | 0.00 | 0.05 | 0.05 | 47 | 1010.6 |
| 20260905221504 | 96 | 295 | 2.0 | 7.0 | 0.00 | 0.05 | 0.05 | 48 | 1010.5 |
| 20260905221004 | 95 | 291 | 2.0 | 6.0 | 0.00 | 0.05 | 0.05 | 51 | 1010.5 |
| 20260905220504 | 95 | 291 | 1.0 | 7.0 | 0.00 | 0.05 | 0.05 | 50 | 1010.5 |
| 20260905220004 | 95 | 298 | 1.0 | 7.0 | 0.00 | 0.05 | 0.05 | 50 | 1010.6 |
| 20260905215504 | 95 | 299 | 1.0 | 4.0 | 0.00 | 0.05 | 0.05 | 49 | 1010.7 |
| 20260905214504 | 95 | 8 | 2.0 | 5.0 | 0.00 | 0.05 | 0.05 | 49 | 1010.7 |
| 20260905214005 | 96 | 340 | 2.0 | 5.0 | 0.00 | 0.05 | 0.05 | 49 | 1010.8 |
| 20260905213504 | 96 | 318 | 1.0 | 5.0 | 0.00 | 0.05 | 0.05 | 49 | 1010.8 |
| 20260905213005 | 96 | 336 | 1.0 | 4.0 | 0.00 | 0.05 | 0.05 | 48 | 1010.8 |
| 20260905212504 | 97 | 341 | 2.0 | 5.0 | 0.00 | 0.05 | 0.05 | 48 | 1010.8 |
| 20260905212003 | 97 | 314 | 2.0 | 6.0 | 0.00 | 0.05 | 0.05 | 48 | 1010.8 |
| 20260905211004 | 98 | 303 | 1.0 | 3.0 | 0.00 | 0.05 | 0.05 | 46 | 1010.7 |
| 20260905210504 | 98 | 303 | 3.0 | 8.0 | 0.00 | 0.05 | 0.05 | 46 | 1010.9 |
| 20260905210007 | 98 | 313 | 3.0 | 8.0 | 0.00 | 0.05 | 0.05 | 45 | 1010.9 |
| 20260905205504 | 98 | 350 | 2.0 | 7.0 | 0.00 | 0.05 | 0.05 | 46 | 1010.9 |
| 20260905205004 | 98 | 340 | 2.0 | 7.0 | 0.00 | 0.05 | 0.05 | 45 | 1011.0 |
| 20260905204504 | 99 | 257 | 3.0 | 6.0 | 0.00 | 0.05 | 0.05 | 45 | 1011.2 |
| 20260905204005 | 99 | 255 | 3.0 | 7.0 | 0.00 | 0.05 | 0.05 | 45 | 1011.2 |
| 20260905203004 | 99 | 274 | 2.0 | 7.0 | 0.00 | 0.05 | 0.05 | 44 | 1011.2 |
| 20260905202004 | 98 | 307 | 3.0 | 8.0 | 0.00 | 0.05 | 0.05 | 45 | 1011.4 |
| 20260905201504 | 98 | 297 | 4.0 | 8.0 | 0.00 | 0.05 | 0.05 | 45 | 1011.5 |
| 20260905201005 | 98 | 316 | 3.0 | 8.0 | 0.00 | 0.05 | 0.05 | 45 | 1011.6 |
| 20260905200505 | 98 | 322 | 2.0 | 6.0 | 0.00 | 0.05 | 0.05 | 45 | 1011.6 |
| 20260905200004 | 98 | 251 | 2.0 | 7.0 | 0.00 | 0.05 | 0.05 | 46 | 1011.7 |
| 20260905195504 | 98 | 231 | 3.0 | 7.0 | 0.00 | 0.05 | 0.05 | 46 | 1011.7 |
| 20260905195004 | 98 | 228 | 3.0 | 6.0 | 0.00 | 0.05 | 0.05 | 46 | 1011.8 |
| 20260905194504 | 98 | 245 | 2.0 | 6.0 | 0.00 | 0.05 | 0.05 | 46 | 1011.9 |
| 20260905194004 | 97 | 325 | 1.0 | 4.0 | 0.00 | 0.05 | 0.05 | 46 | 1011.9 |
| 20260905193504 | 97 | 275 | 3.0 | 7.0 | 0.00 | 0.05 | 0.05 | 45 | 1012.0 |
| 20260905193004 | 97 | 251 | 3.0 | 7.0 | 0.00 | 0.05 | 0.05 | 46 | 1012.1 |
| 20260905192504 | 97 | 254 | 3.0 | 7.0 | 0.00 | 0.05 | 0.05 | 47 | 1012.2 |
| 20260905191504 | 96 | 204 | 3.0 | 6.0 | 0.00 | 0.05 | 0.05 | 48 | 1012.3 |
| 20260905190504 | 96 | 276 | 1.0 | 7.0 | 0.00 | 0.05 | 0.05 | 48 | 1012.5 |
| 20260905190004 | 96 | 255 | 2.0 | 4.0 | 0.00 | 0.05 | 0.05 | 47 | 1012.5 |
| 20260905185504 | 96 | 187 | 3.0 | 7.0 | 0.00 | 0.05 | 0.05 | 48 | 1012.5 |
| 20260905185004 | 96 | 211 | 3.0 | 7.0 | 0.00 | 0.05 | 0.05 | 45 | 1012.6 |
| 20260905184504 | 96 | 303 | 2.0 | 6.0 | 0.00 | 0.05 | 0.05 | 47 | 1012.6 |
| 20260905183504 | 95 | 236 | 2.0 | 5.0 | 0.00 | 0.05 | 0.05 | 47 | 1012.8 |
| 20260905183004 | 95 | 240 | 2.0 | 6.0 | 0.00 | 0.05 | 0.05 | 47 | 1012.9 |
| 20260905182504 | 95 | 149 | 2.0 | 6.0 | 0.00 | 0.05 | 0.05 | 46 | 1013.0 |
| 20260905182004 | 95 | 89 | 2.0 | 5.0 | 0.00 | 0.05 | 0.05 | 49 | 1013.1 |
| 20260905181504 | 95 | 111 | 2.0 | 5.0 | 0.00 | 0.05 | 0.05 | 49 | 1013.1 |
| 20260905181004 | 94 | 112 | 2.0 | 5.0 | 0.00 | 0.05 | 0.05 | 48 | 1013.1 |
| 20260905180504 | 94 | 128 | 2.0 | 7.0 | 0.00 | 0.05 | 0.05 | 50 | 1013.2 |
| 20260905180004 | 94 | 149 | 2.0 | 7.0 | 0.00 | 0.05 | 0.05 | 49 | 1013.4 |
| 20260905175504 | 94 | 175 | 2.0 | 5.0 | 0.00 | 0.05 | 0.05 | 49 | 1013.3 |
| 20260905175004 | 94 | 196 | 3.0 | 7.0 | 0.00 | 0.05 | 0.05 | 49 | 1013.3 |
| 20260905174504 | 93 | 199 | 3.0 | 8.0 | 0.00 | 0.05 | 0.05 | 49 | 1013.4 |
| 20260905173505 | 93 | 194 | 2.0 | 6.0 | 0.00 | 0.05 | 0.05 | 51 | 1013.3 |
| 20260905172004 | 92 | 115 | 3.0 | 8.0 | 0.00 | 0.05 | 0.05 | 51 | 1013.5 |
| 20260905171504 | 92 | 126 | 2.0 | 8.0 | 0.00 | 0.05 | 0.05 | 51 | 1013.6 |
| 20260905171004 | 92 | 143 | 2.0 | 7.0 | 0.00 | 0.05 | 0.05 | 53 | 1013.5 |
| 20260905170503 | 91 | 122 | 3.0 | 8.0 | 0.00 | 0.05 | 0.05 | 53 | 1013.6 |
| 20260905170004 | 91 | 114 | 4.0 | 8.0 | 0.00 | 0.05 | 0.05 | 52 | 1013.8 |
| 20260905165504 | 91 | 127 | 4.0 | 10.0 | 0.00 | 0.05 | 0.05 | 53 | 1013.9 |
| 20260905165004 | 91 | 138 | 3.0 | 10.0 | 0.00 | 0.05 | 0.05 | 53 | 1014.1 |
| 20260905164504 | 90 | 141 | 3.0 | 9.0 | 0.00 | 0.05 | 0.05 | 55 | 1014.3 |
| 20260905164005 | 90 | 124 | 4.0 | 9.0 | 0.00 | 0.05 | 0.05 | 54 | 1014.4 |
| 20260905163504 | 90 | 115 | 3.0 | 9.0 | 0.00 | 0.05 | 0.05 | 56 | 1014.3 |
| 20260905163004 | 90 | 124 | 3.0 | 7.0 | 0.00 | 0.05 | 0.05 | 55 | 1014.3 |
| 20260905162504 | 90 | 130 | 3.0 | 9.0 | 0.00 | 0.05 | 0.05 | 55 | 1014.4 |
| 20260905161504 | 89 | 142 | 2.0 | 6.0 | 0.00 | 0.05 | 0.05 | 57 | 1014.3 |
| 20260905161005 | 89 | 126 | 3.0 | 7.0 | 0.00 | 0.05 | 0.05 | 58 | 1014.3 |
| 20260905160504 | 88 | 121 | 3.0 | 8.0 | 0.00 | 0.05 | 0.05 | 56 | 1014.3 |
| 20260905155505 | 88 | 140 | 3.0 | 9.0 | 0.00 | 0.05 | 0.05 | 59 | 1014.3 |
| 20260905155004 | 87 | 132 | 3.0 | 8.0 | 0.00 | 0.05 | 0.05 | 61 | 1014.4 |
| 20260905154504 | 87 | 128 | 3.0 | 8.0 | 0.00 | 0.05 | 0.05 | 60 | 1014.4 |
| 20260905154004 | 87 | 105 | 2.0 | 8.0 | 0.00 | 0.05 | 0.05 | 61 | 1014.6 |
| 20260905153504 | 86 | 112 | 3.0 | 9.0 | 0.00 | 0.05 | 0.05 | 61 | 1014.6 |
| 20260905153004 | 86 | 130 | 4.0 | 9.0 | 0.00 | 0.05 | 0.05 | 62 | 1014.6 |
| 20260905152504 | 85 | 134 | 3.0 | 9.0 | 0.00 | 0.05 | 0.05 | 62 | 1014.5 |
| 20260905152004 | 85 | 132 | 3.0 | 8.0 | 0.00 | 0.05 | 0.05 | 65 | 1014.6 |
| 20260905151504 | 84 | 126 | 4.0 | 12.0 | 0.00 | 0.05 | 0.05 | 64 | 1014.5 |
| 20260905151004 | 84 | 124 | 5.0 | 12.0 | 0.00 | 0.05 | 0.05 | 64 | 1014.5 |
| 20260905150504 | 84 | 120 | 5.0 | 9.0 | 0.00 | 0.05 | 0.05 | 66 | 1014.5 |
| 20260905145504 | 83 | 95 | 3.0 | 9.0 | 0.00 | 0.05 | 0.05 | 68 | 1014.8 |
| 20260905145004 | 82 | 88 | 3.0 | 8.0 | 0.00 | 0.05 | 0.05 | 68 | 1014.8 |
| 20260905144504 | 81 | 104 | 4.0 | 9.0 | 0.00 | 0.05 | 0.05 | 70 | 1014.8 |
| 20260905144004 | 81 | 106 | 3.0 | 9.0 | 0.00 | 0.05 | 0.05 | 72 | 1014.8 |
| 20260905143004 | 79 | 90 | 2.0 | 8.0 | 0.01 | 0.05 | 0.05 | 74 | 1014.9 |
| 20260905142504 | 79 | 80 | 2.0 | 8.0 | 0.01 | 0.05 | 0.05 | 75 | 1014.9 |
| 20260905142004 | 78 | 80 | 2.0 | 6.0 | 0.01 | 0.05 | 0.05 | 76 | 1014.9 |
| 20260905141004 | 78 | 62 | 2.0 | 8.0 | 0.01 | 0.05 | 0.05 | 78 | 1015.0 |
| 20260905140503 | 78 | 68 | 2.0 | 10.0 | 0.01 | 0.05 | 0.05 | 79 | 1015.1 |
| 20260905140004 | 78 | 67 | 3.0 | 10.0 | 0.01 | 0.05 | 0.05 | 79 | 1015.1 |
| 20260905135506 | 77 | 67 | 3.0 | 8.0 | 0.01 | 0.05 | 0.05 | 79 | 1015.1 |
| 20260905135004 | 77 | 71 | 3.0 | 8.0 | 0.01 | 0.05 | 0.05 | 79 | 1015.3 |
| 20260905134004 | 78 | 72 | 3.0 | 9.0 | 0.01 | 0.05 | 0.05 | 80 | 1015.4 |
| 20260905133503 | 78 | 59 | 4.0 | 10.0 | 0.02 | 0.04 | 0.04 | 80 | 1015.3 |
| 20260905133004 | 77 | 44 | 3.0 | 10.0 | 0.04 | 0.04 | 0.04 | 81 | 1015.5 |
| 20260905132504 | 77 | 49 | 2.0 | 9.0 | 0.04 | 0.04 | 0.04 | 82 | 1015.7 |
| 20260905131503 | 76 | 58 | 3.0 | 10.0 | 0.04 | 0.04 | 0.04 | 83 | 1015.7 |
| 20260905131004 | 76 | 53 | 3.0 | 10.0 | 0.04 | 0.04 | 0.04 | 83 | 1015.6 |
| 20260905130503 | 76 | 54 | 3.0 | 14.0 | 0.04 | 0.04 | 0.04 | 83 | 1015.4 |
| 20260905130004 | 76 | 56 | 3.0 | 14.0 | 0.04 | 0.04 | 0.04 | 82 | 1015.2 |
| 20260905125504 | 77 | 51 | 2.0 | 7.0 | 0.04 | 0.04 | 0.04 | 82 | 1015.5 |
| 20260905125004 | 77 | 58 | 2.0 | 8.0 | 0.04 | 0.04 | 0.04 | 82 | 1015.5 |
| 20260905124503 | 77 | 65 | 2.0 | 9.0 | 0.04 | 0.04 | 0.04 | 81 | 1015.5 |
| 20260905124005 | 78 | 57 | 2.0 | 9.0 | 0.04 | 0.04 | 0.04 | 80 | 1015.3 |
| 20260905123503 | 78 | 52 | 2.0 | 5.0 | 0.01 | 0.01 | 0.01 | 79 | 1015.2 |
| 20260905122505 | 77 | 130 | 2.0 | 5.0 | 0.00 | 0.00 | 0.00 | 79 | 1014.6 |
| 20260905122004 | 77 | 130 | 1.0 | 5.0 | 0.00 | 0.00 | 0.00 | 79 | 1014.5 |
| 20260905121503 | 77 | 132 | 1.0 | 5.0 | 0.00 | 0.00 | 0.00 | 79 | 1014.7 |
| 20260905121004 | 77 | 127 | 2.0 | 5.0 | 0.00 | 0.00 | 0.00 | 79 | 1014.5 |
| 20260905120503 | 78 | 119 | 2.0 | 4.0 | 0.00 | 0.00 | 0.00 | 79 | 1014.3 |
| 20260905120004 | 78 | 98 | 1.0 | 4.0 | 0.00 | 0.00 | 0.00 | 79 | 1014.3 |
| 20260905115004 | 78 | 64 | 3.0 | 11.0 | 0.00 | 0.00 | 0.00 | 78 | 1014.4 |
| 20260905114503 | 78 | 63 | 3.0 | 10.0 | 0.00 | 0.00 | 0.00 | 79 | 1014.4 |
| 20260905113504 | 78 | 0 | 0.0 | 3.0 | 0.00 | 0.00 | 0.00 | 79 | 1014.2 |
| 20260905113003 | 78 | 0 | 0.0 | 2.0 | 0.00 | 0.00 | 0.00 | 79 | 1014.0 |
| 20260905112504 | 78 | 66 | 1.0 | 5.0 | 0.00 | 0.00 | 0.00 | 80 | 1013.9 |
| 20260905112003 | 78 | 67 | 2.0 | 5.0 | 0.00 | 0.00 | 0.00 | 80 | 1013.8 |
| 20260905111504 | 78 | 65 | 1.0 | 5.0 | 0.00 | 0.00 | 0.00 | 80 | 1014.0 |
| 20260905111004 | 79 | 64 | 1.0 | 4.0 | 0.00 | 0.00 | 0.00 | 80 | 1014.0 |
| 20260905110503 | 79 | 72 | 2.0 | 7.0 | 0.00 | 0.00 | 0.00 | 80 | 1013.9 |
| 20260905110003 | 79 | 71 | 2.0 | 7.0 | 0.00 | 0.00 | 0.00 | 80 | 1013.7 |
| 20260905105504 | 79 | 53 | 2.0 | 7.0 | 0.00 | 0.00 | 0.00 | 81 | 1013.8 |
| 20260905105004 | 79 | 28 | 3.0 | 7.0 | 0.00 | 0.00 | 0.00 | 80 | 1013.7 |
| 20260905104503 | 79 | 17 | 2.0 | 6.0 | 0.00 | 0.00 | 0.00 | 80 | 1013.7 |
| 20260905104004 | 79 | 13 | 1.0 | 5.0 | 0.00 | 0.00 | 0.00 | 79 | 1013.3 |
| 20260905103004 | 79 | 0 | 0.0 | 0.0 | 0.00 | 0.00 | 0.00 | 79 | 1012.8 |
| 20260905102504 | 80 | 0 | 0.0 | 0.0 | 0.00 | 0.00 | 0.00 | 78 | 1012.8 |
| 20260905102003 | 80 | 0 | 0.0 | 0.0 | 0.00 | 0.00 | 0.00 | 78 | 1012.8 |
| 20260905101503 | 80 | 0 | 0.0 | 0.0 | 0.00 | 0.00 | 0.00 | 78 | 1013.0 |
| 20260905101004 | 80 | 0 | 0.0 | 0.0 | 0.00 | 0.00 | 0.00 | 78 | 1013.0 |
| 20260905100503 | 80 | 0 | 0.0 | 0.0 | 0.00 | 0.00 | 0.00 | 78 | 1013.0 |
| 20260905095504 | 80 | 0 | 0.0 | 0.0 | 0.00 | 0.00 | 0.00 | 78 | 1013.0 |
| 20260905094503 | 80 | 0 | 0.0 | 0.0 | 0.00 | 0.00 | 0.00 | 77 | 1013.0 |
| 20260905094004 | 81 | 0 | 0.0 | 0.0 | 0.00 | 0.00 | 0.00 | 77 | 1013.0 |